Theta_e
315 315 314 312 311 298 296 298 295 303 304 303 299 304 305 305 306 304 305 306 306 307 306 306 305 304 305 302 303 306 304 303 306 305 303 303 307 308 305 310 306 303 302 305
314 315 314 313 311 296 298 297 298 303 302 299 303 303 305 305 305 304 305 306 305 304 306 306 304 304 303 301 304 305 304 302 302 302 303 302 304 304 303 303 302 304 308 305
313 315 315 313 310 296 299 295 296 297 298 297 301 303 303 304 304 304 304 305 304 305 305 304 304 304 304 300 303 307 304 303 303 303 302 303 305 305 304 304 307 305 305 304
314 314 315 313 309 296 298 293 297 298 295 297 301 302 302 304 304 303 302 304 304 304 305 304 303 303 300 300 301 302 302 305 302 303 303 303 304 303 303 303 302 302 301 301
315 315 315 313 310 297 298 297 297 296 295 297 300 299 299 302 303 303 303 304 302 301 303 303 303 300 299 299 300 300 296 303 300 302 302 300 299 298 297 297 299 299 299 300
317 316 316 314 309 297 298 298 298 295 293 297 297 296 298 301 302 302 302 302 300 299 299 298 297 296 296 296 298 296 296 298 299 298 298 297 296 296 297 299 300 301 302 300
315 318 317 315 309 301 297 298 297 293 294 296 298 298 298 301 300 301 300 296 297 296 294 293 293 292 292 292 293 294 295 299 298 296 296 296 295 297 297 301 301 301 299 297
318 317 317 316 310 301 297 298 297 294 294 295 295 296 298 297 296 297 297 296 294 294 295 296 296 295 295 294 293 292 293 295 296 296 297 296 299 298 299 300 301 298 297 297
319 318 316 314 310 299 296 298 297 295 295 296 295 296 295 295 295 295 295 294 294 293 295 296 297 296 296 296 298 292 293 293 294 297 299 299 297 296 296 296 302 297 297 296
319 318 315 311 306 298 296 298 298 296 295 295 295 297 297 295 295 295 295 295 294 293 294 296 297 297 296 297 298 298 295 294 296 296 299 297 294 293 293 301 297 294 295 295
318 316 311 303 300 297 297 297 297 295 295 296 297 297 296 295 296 297 294 294 293 293 296 296 297 298 295 294 295 296 296 297 295 296 297 296 289 290 291 291 291 291 290 290
313 314 307 300 299 297 296 296 296 294 294 294 294 295 294 295 295 295 294 293 293 294 295 294 294 296 290 291 293 290 293 292 293 294 295 290 289 290 289 290 290 290 290 290
312 309 301 299 298 296 295 296 294 293 292 292 292 292 292 292 294 295 295 293 293 292 290 292 292 293 291 291 291 291 290 289 290 290 288 287 289 289 289 288 288 288 288 286
310 301 300 299 297 296 295 294 293 294 292 292 290 289 289 289 290 293 294 292 291 291 290 292 293 293 290 290 289 289 289 288 288 288 287 288 289 289 287 287 286 286 285 284
304 300 299 298 297 295 295 294 293 293 291 292 291 289 289 289 289 290 292 292 290 290 292 291 291 291 289 287 288 288 285 287 288 288 287 287 287 286 285 285 284 283 283 283
301 300 299 297 296 294 294 292 293 293 289 290 290 288 288 289 289 289 290 290 288 289 290 290 289 287 288 287 288 286 285 285 286 286 285 284 284 284 284 283 282 282 283 283
300 298 297 296 295 293 291 290 289 293 289 289 286 287 287 288 289 288 287 288 287 288 288 287 288 288 289 288 288 286 284 284 283 283 282 283 284 283 282 282 281 281 281 281
297 297 295 294 292 290 291 290 290 290 289 287 282 283 287 287 288 289 287 288 288 287 288 289 289 289 287 288 287 284 283 282 282 282 282 281 281 281 281 280 280 280 281 281
294 292 291 290 289 290 291 290 290 289 289 284 281 285 287 286 287 288 289 289 289 289 291 290 290 290 287 287 285 283 283 282 282 281 280 280 280 280 280 279 279 280 280 280
290 291 289 289 291 291 290 288 287 284 281 279 283 286 286 286 285 286 287 284 290 285 289 290 289 291 287 284 283 282 281 280 280 280 280 280 279 279 279 279 279 279 280 281
289 288 289 290 290 287 285 283 282 278 280 282 285 286 286 286 285 286 287 284 285 284 288 291 290 289 285 283 281 280 279 279 279 279 279 279 278 279 279 279 279 279 280 280
289 289 289 288 284 283 284 277 279 280 284 281 283 287 286 285 286 284 282 282 281 284 287 289 288 286 283 281 281 279 279 278 278 278 278 278 278 278 278 278 279 279 279 279
287 285 282 282 280 283 281 279 278 279 282 286 285 284 283 282 283 282 281 283 286 284 285 287 284 284 281 279 279 278 278 278 278 277 277 277 277 277 278 278 278 278 278 278
282 283 283 283 283 279 281 283 283 285 285 284 284 282 283 281 281 279 284 284 285 283 282 283 280 280 279 278 277 277 276 276 276 276 276 276 276 276 277 277 278 278 278 278
282 284 283 282 283 284 283 283 284 281 280 280 281 281 281 279 281 280 281 282 281 283 282 281 280 276 273 272 273 273 274 275 275 275 275 276 276 276 276 276 277 277 277 277
281 280 283 285 286 284 284 283 283 280 279 279 279 277 278 277 276 279 278 279 280 280 277 278 275 274 270 267 273 275 276 275 275 275 275 275 275 275 275 276 277 277 277 276
282 282 283 283 284 283 282 282 282 278 279 278 276 278 278 274 275 278 278 278 276 275 277 275 272 271 271 275 276 276 276 275 275 275 275 275 275 275 275 275 276 276 277 276
Wind_Speed
18 16 16 17 22 22 12 4 3 9 11 4 2 2 3 3 3 4 3 2 1 2 2 3 2 2 1 7 4 3 3 3 3 8 2 1 2 2 4 2 3 1 2 6
18 17 16 16 17 16 7 2 2 7 7 3 2 2 2 1 3 3 3 1 1 1 1 2 1 2 2 5 2 2 1 2 3 6 3 3 4 1 3 1 3 6 3 5
20 18 17 16 14 11 7 2 3 4 4 1 3 2 2 2 2 1 2 1 1 1 1 2 2 2 2 5 2 7 1 2 6 5 3 1 4 4 2 4 4 6 9 17
22 20 20 17 12 7 4 3 1 2 4 3 2 1 2 2 2 1 1 2 1 2 1 3 4 1 5 3 7 2 2 4 3 5 6 5 8 9 6 9 10 7 4 7
26 24 23 20 15 6 3 1 3 2 2 1 0 0 4 5 3 3 3 3 4 3 4 5 5 2 3 6 4 3 5 2 2 4 10 4 7 10 11 12 11 7 9 7
30 30 28 24 20 12 3 3 2 3 0 1 3 4 4 5 3 1 1 3 3 3 7 4 6 6 5 5 3 1 1 1 1 4 3 7 6 4 4 0 5 2 1 3
34 34 34 31 28 22 10 6 5 3 3 3 5 4 5 7 4 2 2 3 3 2 2 6 3 2 5 5 6 6 3 3 2 3 4 2 3 5 2 7 4 4 3 7
40 38 37 36 32 27 18 11 7 3 3 2 2 5 4 2 3 1 3 3 3 1 4 3 5 1 1 2 4 4 5 3 2 1 2 7 2 5 3 2 2 3 3 7
40 41 41 40 36 29 23 13 9 3 3 3 3 3 3 4 3 1 2 1 1 3 1 1 1 2 3 1 0 7 5 3 1 1 2 4 1 5 5 3 4 4 4 7
38 40 43 43 37 29 23 11 13 6 2 2 2 0 2 3 1 1 0 1 1 1 0 2 3 2 1 2 1 3 3 0 3 3 4 6 5 7 4 1 4 11 5 9
37 39 43 38 33 30 26 15 16 12 2 1 3 2 1 1 1 3 2 2 0 1 3 3 3 3 2 1 2 3 4 4 4 2 3 7 6 5 2 3 5 6 7 8
28 36 42 35 33 31 22 9 16 15 5 1 3 3 2 1 2 3 1 1 1 3 2 1 1 2 1 2 2 1 2 3 2 5 4 1 3 4 3 2 4 6 14 13
22 39 37 34 28 27 17 18 22 12 3 2 2 4 4 3 7 2 3 1 1 1 1 3 1 2 3 3 4 1 1 2 1 4 3 8 12 1 4 4 11 14 7 9
30 39 35 31 27 24 21 18 20 10 6 2 3 5 3 4 3 6 4 7 6 5 1 1 1 2 1 2 1 3 2 3 1 5 5 10 1 4 9 16 14 8 15 17
44 39 36 30 29 22 18 18 19 9 3 3 2 4 5 4 3 4 7 12 5 2 1 1 2 1 1 0 1 2 1 2 1 3 4 4 12 13 17 12 14 17 17 18
43 39 36 35 26 26 18 2 8 14 4 3 1 3 3 4 3 7 7 7 3 2 3 2 1 2 2 2 2 2 2 1 2 4 9 12 17 17 11 17 20 25 23 24
40 40 34 30 27 17 6 2 5 16 6 2 2 2 4 4 3 3 2 3 2 2 2 1 2 2 3 1 2 2 4 4 6 6 6 7 3 12 24 23 26 29 28 27
40 36 36 31 25 18 12 13 13 9 7 4 3 2 2 1 1 1 1 2 1 1 2 2 2 1 2 2 1 3 5 7 5 7 9 12 18 21 20 23 24 18 18 22
48 42 35 21 7 4 8 10 8 7 5 3 2 4 2 3 1 1 2 0 1 1 2 2 3 2 2 2 2 4 4 4 9 12 10 9 12 15 15 17 17 17 18 21
45 25 9 3 3 20 13 2 3 4 6 3 2 1 2 2 1 1 2 1 1 1 2 3 2 1 5 3 3 3 5 5 6 10 12 15 16 17 18 17 20 20 21 26
12 5 2 11 13 3 4 3 3 2 3 0 1 2 2 2 3 2 1 2 1 2 2 2 2 2 1 5 5 5 8 9 10 10 13 14 14 14 16 18 25 25 27 25
14 25 19 5 4 3 4 0 2 1 3 2 2 1 2 1 1 3 2 3 1 2 1 0 1 1 2 4 4 6 11 12 12 12 13 16 18 20 20 21 22 25 27 27
17 7 4 3 3 4 5 4 3 1 2 3 2 2 1 2 3 2 2 2 2 0 2 1 2 1 3 4 4 5 11 11 11 13 15 17 19 21 20 22 23 25 25 26
4 4 4 2 0 1 3 3 3 1 2 3 2 2 2 0 3 1 3 1 1 2 1 3 1 2 3 4 5 4 7 12 12 14 17 17 18 20 21 21 24 24 24 26
3 3 3 1 2 2 2 2 3 2 2 1 2 3 2 2 3 2 2 3 2 3 3 1 1 3 3 3 3 6 7 12 14 16 14 17 19 19 21 24 24 25 25 25
3 5 3 1 3 2 2 2 2 1 2 1 3 2 3 2 2 2 3 4 3 2 2 2 2 3 3 3 8 9 11 13 14 15 16 16 18 19 21 22 24 25 25 24
4 3 2 2 3 3 2 1 1 0 2 2 2 3 4 1 3 2 2 3 2 3 2 1 2 3 4 6 8 9 11 12 13 15 16 18 19 18 17 20 26 25 23 24
Wind_Direction
280 293 310 324 334 345 350 23 357 349 356 48 56 60 344 344 4 8 47 99 139 123 358 306 296 316 28 343 319 359 319 144 256 247 220 226 193 204 166 162 274 182 196 264
270 282 295 310 325 342 344 73 267 345 350 86 33 317 314 36 7 19 29 67 60 112 125 315 240 337 174 7 80 131 237 249 320 339 14 32 87 57 119 105 171 201 216 257
261 268 280 292 306 331 339 71 7 338 47 340 120 63 249 272 125 104 89 142 96 92 95 238 243 265 266 315 356 330 178 215 206 214 231 161 262 248 284 179 256 279 249 291
257 259 266 270 285 302 311 16 117 127 308 359 12 55 326 290 277 98 69 114 123 174 217 279 234 210 327 304 356 65 78 235 219 270 265 251 273 282 246 228 238 237 311 265
257 258 255 255 257 238 258 177 144 47 209 319 75 318 223 215 243 204 231 182 170 196 213 222 241 156 182 252 346 70 2 273 352 249 255 317 290 283 267 254 255 249 269 273
257 253 250 244 236 196 182 169 111 114 106 123 112 230 222 219 174 296 271 169 147 240 244 242 243 220 221 241 233 54 331 192 66 273 345 314 288 261 247 128 51 302 197 318
255 254 250 241 228 205 193 180 136 126 238 200 201 205 199 210 207 254 234 140 151 214 349 301 266 199 241 245 262 202 200 167 145 271 339 284 224 4 185 118 75 48 19 345
258 256 251 247 226 205 203 190 161 159 237 209 237 207 200 126 38 253 234 237 219 356 22 352 328 12 317 74 74 243 197 140 229 170 250 301 106 1 337 341 125 64 306 294
257 256 248 245 226 200 196 203 176 124 105 245 61 162 192 184 190 281 221 32 346 48 84 60 286 285 338 204 78 24 109 51 137 199 253 261 98 280 256 204 213 204 273 302
261 253 244 229 212 188 184 178 168 114 140 355 30 230 198 149 137 153 13 165 159 31 198 214 192 249 250 263 215 178 105 139 238 253 262 284 342 316 281 199 326 330 319 312
260 244 220 199 183 182 177 171 170 160 147 205 177 152 192 10 233 145 149 92 124 97 209 219 186 177 223 280 244 185 184 176 210 210 245 269 347 28 51 274 307 303 315 310
257 230 203 181 174 176 165 137 162 160 120 72 218 214 201 222 281 152 161 47 141 212 104 300 3 191 123 151 257 333 245 193 217 194 244 45 15 203 225 278 275 311 312 308
234 205 177 172 171 169 164 135 139 130 130 76 359 243 182 189 225 204 142 222 157 92 7 150 157 234 150 171 236 259 261 76 249 360 336 324 321 199 30 331 319 310 307 318
201 169 166 167 164 160 166 151 165 134 109 133 189 179 123 77 212 200 181 144 125 112 64 106 156 220 191 204 178 172 195 351 355 264 319 324 294 358 341 320 315 313 312 306
174 163 162 161 151 153 160 153 168 165 117 169 258 137 157 135 72 161 152 138 106 88 77 74 217 270 144 181 85 239 54 119 125 265 307 245 285 308 313 312 321 314 310 306
162 159 158 148 153 150 130 81 209 192 217 103 164 348 53 77 99 135 132 123 92 104 153 203 243 262 151 122 212 139 81 354 230 271 304 294 280 287 299 320 312 311 306 304
153 146 146 145 141 133 88 165 172 183 187 91 46 11 19 53 101 65 65 60 90 112 141 200 201 242 145 124 229 158 327 306 287 281 332 306 308 305 309 307 308 308 303 301
137 136 132 131 121 111 75 81 117 137 102 58 100 284 49 54 92 86 25 96 52 3 173 163 180 124 71 225 112 340 346 332 312 333 312 278 291 302 310 312 313 311 307 308
125 119 113 102 83 86 126 104 97 84 86 113 86 143 210 28 21 113 90 153 131 295 217 201 152 170 226 104 352 348 351 335 298 307 304 304 312 313 317 319 316 312 308 309
121 109 75 68 80 123 121 94 32 26 351 32 118 74 168 88 264 26 105 341 149 209 234 124 188 149 112 76 32 1 333 309 309 325 330 331 328 325 321 320 316 312 310 310
100 81 73 110 136 109 42 61 67 345 9 5 183 178 126 324 112 150 353 158 43 81 253 203 207 145 113 20 2 345 340 336 321 296 294 310 308 311 315 318 318 319 318 316
122 106 105 101 42 51 89 83 348 106 221 308 123 135 107 127 64 103 330 129 64 232 296 50 221 143 55 10 344 332 340 338 320 326 325 325 324 320 319 317 320 324 322 325
104 79 84 77 308 72 130 185 293 295 193 185 157 75 79 33 45 61 100 95 206 35 75 203 167 97 9 346 330 324 337 335 332 338 341 334 330 332 332 325 331 331 335 339
72 86 62 70 291 267 171 166 153 99 99 105 88 83 88 303 64 184 94 233 33 52 60 224 237 280 312 328 331 323 320 336 338 339 335 334 335 334 335 338 341 341 346 345
84 69 102 100 142 67 76 73 91 44 105 122 90 69 75 19 80 27 70 35 289 197 220 193 234 273 295 306 315 317 325 339 339 339 333 336 337 340 333 343 349 352 355 357
73 52 89 70 79 51 58 52 81 37 113 88 45 93 60 15 125 70 210 122 226 236 226 255 287 298 283 274 313 332 346 349 343 346 350 342 347 339 333 347 357 356 359 359
54 34 17 76 65 90 87 62 79 341 69 104 98 76 196 106 48 330 196 195 210 230 276 277 247 268 275 304 331 348 351 352 354 355 3 1 2 359 355 359 353 354 358 6